Location: Bun
(42.9667°N, 0.1500°W)
Time: 15:02:04
(UTC+00:00)

Cosmos 1386 Rocket - Pass Details

Date: 03 February 2023
Orbit: 930 x 1005 km, 83.0° (Epoch: 23 March)

Event Time Altitude Azimuth Distance (km) Brightness Sun altitude
Rises 19:18:06 0° 351° (N) 3,592 7.6 -22.7°
Reaches altitude 10° 19:20:34 10° 351° (N) 2,645 6.9 -23.1°
Maximum altitude 19:26:36 82° 265° (W) 947 4.4 -24.2°
Drops below altitude 10° 19:32:38 10° 178° (S) 2,648 6.7 -25.3°
Sets 19:35:07 0° 177° (S) 3,597 7.4 -25.8°
